Lima, OH

12:48 AM EST on February 21, 2018 (GMT -0500)
Lima Allen County

Weather History for KAOH - June, 2013

Change the Weather History Date:

Saturday, June 15, 2013

  Actual Average (KFDY) Record (KFDY)
Temperature  
Mean Temperature 70 °F -  
Max Temperature 80 °F 79 °F 94 °F (1952)
Min Temperature 60 °F 60 °F 47 °F (1961)
Cooling Degree Days 4    
Growing Degree Days 20 (Base 50)    
Moisture  
Dew Point 58 °F    
Average Humidity 67    
Maximum Humidity 81    
Minimum Humidity 45    
Precipitation  
Precipitation 0.01 in - - ()
Sea Level Pressure  
Sea Level Pressure 30.04 in    
Wind  
Wind Speed 7 mph (South)    
Max Wind Speed 12 mph    
Max Gust Speed 17 mph    
Visibility 10 miles    
Events Rain    
Averages and records for this station are not official NWS values.
T = Trace of Precipitation, MM = Missing Value Source: NWS Daily Summary

Daily Weather History Graph

Daily Weather History Graph

Search for Another Location

Airport or City:

Trip Planner

Search our weather history database for the weather conditions in past years. The results will help you decide how hot, cold, wet, or windy it might be!

Date:

Astronomy

Jun. 15, 2013 Rise Set
Actual Time 6:04 AM EDT 9:09 PM EDT
Civil Twilight 5:31 AM EDT 9:42 PM EDT
Nautical Twilight 4:48 AM EDT 10:25 PM EDT
Astronomical Twilight 3:58 AM EDT 11:15 PM EDT
Moon 12:40 PM EDT (6/15) 12:42 AM EDT (6/15)
Length of Visible Light 16h 11m
Length of Day
15h 04m
Waxing Crescent, 39% of the Moon is Illuminated
Jun 15
Waxing Crescent
Jun 16
First Quarter
Jun 23
Full
Jun 30
Last Quarter
Jul 8
New

Hourly Weather History & Observations

Time (EDT) Temp. Dew Point Humidity Pressure Visibility Wind Dir Wind Speed Gust Speed Precip Events Conditions
12:53 AM 63.0 °F 54.0 °F 72% 30.05 in 10.0 mi SE 8.1 mph - N/A   Clear
1:53 AM 63.0 °F 54.0 °F 72% 30.04 in 10.0 mi SSE 6.9 mph - N/A   Clear
2:53 AM 61.0 °F 54.0 °F 78% 30.05 in 10.0 mi South 4.6 mph - N/A   Clear
3:53 AM 61.0 °F 54.0 °F 78% 30.07 in 10.0 mi South 3.5 mph - N/A   Clear
4:53 AM 61.0 °F 54.0 °F 78% 30.07 in 10.0 mi South 5.8 mph - N/A   Clear
5:53 AM 60.1 °F 54.0 °F 80% 30.07 in 10.0 mi South 6.9 mph - N/A   Clear
6:53 AM 62.1 °F 54.0 °F 75% 30.10 in 10.0 mi South 6.9 mph - N/A   Clear
7:53 AM 64.9 °F 55.9 °F 73% 30.10 in 10.0 mi South 9.2 mph - N/A   Clear
8:53 AM 68.0 °F 57.0 °F 68% 30.12 in 10.0 mi South 5.8 mph - N/A   Clear
9:53 AM 72.0 °F 57.0 °F 59% 30.11 in 10.0 mi SSW 10.4 mph - N/A   Clear
10:53 AM 73.0 °F 57.0 °F 57% 30.09 in 10.0 mi SSW 8.1 mph - N/A   Clear
11:53 AM 78.1 °F 55.9 °F 46% 30.06 in 10.0 mi SW 4.6 mph - N/A   Clear
12:53 PM 77.0 °F 55.9 °F 48% 30.04 in 10.0 mi SW 11.5 mph 17.3 mph N/A   Scattered Clouds
1:53 PM 79.0 °F 55.9 °F 45% 30.02 in 10.0 mi SSW 8.1 mph - N/A   Clear
2:53 PM 77.0 °F 59.0 °F 54% 30.04 in 10.0 mi SSW 4.6 mph - 0.00 in Rain Light Rain
3:53 PM 78.1 °F 57.9 °F 50% 30.04 in 10.0 mi SW 10.4 mph - 0.00 in   Overcast
4:53 PM 77.0 °F 57.9 °F 52% 30.03 in 10.0 mi SW 5.8 mph - N/A   Mostly Cloudy
5:53 PM 75.9 °F 61.0 °F 60% 30.02 in 10.0 mi WSW 5.8 mph - 0.00 in Rain Light Rain
6:53 PM 72.0 °F 61.0 °F 68% 30.01 in 10.0 mi North 3.5 mph - 0.01 in Rain Light Rain
7:53 PM 69.1 °F 63.0 °F 81% 30.00 in 5.0 mi North 5.8 mph - 0.00 in Rain Light Rain
8:53 PM 69.1 °F 63.0 °F 81% 29.97 in 7.0 mi ESE 5.8 mph - 0.00 in   Overcast
9:53 PM 69.1 °F 63.0 °F 81% 29.97 in 8.0 mi ESE 5.8 mph - 0.00 in Rain Light Rain
10:53 PM 69.1 °F 63.0 °F 81% 29.98 in 9.0 mi SE 4.6 mph - 0.00 in   Overcast
11:53 PM 70.0 °F 62.1 °F 76% 29.96 in 8.0 mi SE 5.8 mph - N/A   Overcast